Weather History for KDUJ - February, 2014

Change the Weather History Date:

Thursday, February 27, 2014

  Actual Average Record
Temperature  
Mean Temperature 9 °F 29 °F  
Max Temperature 18 °F 38 °F 55 °F (1976)
Min Temperature -1 °F 21 °F -10 °F (1963)
Degree Days  
Heating Degree Days 56 36  
Month to date heating degree days 1122 1044  
Since 1 July heating degree days 5025 4988  
Cooling Degree Days 0 0  
Month to date cooling degree days 0 0  
Year to date cooling degree days 0 0  
Moisture  
Dew Point 2 °F    
Average Humidity 64    
Maximum Humidity 73    
Minimum Humidity 55    
Precipitation  
Precipitation T in 0.10 in 0.55 in (2009)
Month to date precipitation 1.99 2.27  
Sea Level Pressure  
Sea Level Pressure 29.67 in    
Wind  
Wind Speed 13 mph (West)    
Max Wind Speed 33 mph    
Max Gust Speed 44 mph    
Visibility 4 miles    
Events Snow    
T = Trace of Precipitation, MM = Missing Value Source: NWS Daily Summary

Daily Weather History Graph

Daily Weather History Graph

Search for Another Location

Airport or City:

Trip Planner

Search our weather history database for the weather conditions in past years. The results will help you decide how hot, cold, wet, or windy it might be!

Date:

Astronomy

Feb. 27, 2014 Rise Set
Actual Time 6:53 AM EST 6:04 PM EST
Civil Twilight 6:25 AM EST 6:31 PM EST
Nautical Twilight 5:53 AM EST 7:03 PM EST
Astronomical Twilight 5:21 AM EST 7:35 PM EST
Moon 5:24 AM EST 4:27 PM EST
Length of Visible Light 12h 06m
Length of Day
11h 11m
Waning Crescent, 4% of the Moon is Illuminated
Feb 27
Waning Crescent
Mar 1
New
Mar 8
First Quarter
Mar 16
Full
Mar 23
Last Quarter

Hourly Weather History & Observations

Time (EST) Temp. Windchill Dew Point Humidity Pressure Visibility Wind Dir Wind Speed Gust Speed Precip Events Conditions
12:56 AM 10.9 °F 1.4 °F -2.9 °F 54% 29.73 in 10.0 mi SSW 5.8 mph - N/A   Scattered Clouds
1:56 AM 10.0 °F 1.8 °F -0.9 °F 61% 29.70 in 10.0 mi Variable 4.6 mph - N/A   Overcast
2:56 AM 10.9 °F 1.4 °F -0.0 °F 61% 29.65 in 10.0 mi SSW 5.8 mph - N/A   Overcast
3:56 AM 12.0 °F 0.5 °F 1.0 °F 61% 29.62 in 10.0 mi SW 8.1 mph - N/A   Mostly Cloudy
4:56 AM 14.0 °F -0.8 °F 1.0 °F 56% 29.60 in 10.0 mi WSW 13.8 mph 23.0 mph N/A   Overcast
5:56 AM 12.9 °F -1.6 °F 1.0 °F 59% 29.60 in 10.0 mi SW 12.7 mph - N/A   Overcast
6:56 AM 12.9 °F -2.2 °F 1.9 °F 62% 29.59 in 8.0 mi SW 13.8 mph 23.0 mph N/A   Overcast
7:17 AM 12.2 °F -3.1 °F 3.2 °F 67% 29.50 in 2.5 mi SW 13.8 mph - N/A   Haze
7:32 AM 12.2 °F -3.7 °F 5.0 °F 73% 29.50 in 1.2 mi WSW 15.0 mph 23.0 mph N/A   Haze
7:56 AM 12.9 °F -2.8 °F 6.1 °F 74% 29.60 in 1.0 mi WSW 15.0 mph - 0.00 in Snow Light Snow
8:03 AM 12.2 °F -3.7 °F 6.8 °F 79% 29.50 in 0.8 mi WSW 15.0 mph - 0.00 in Snow Light Snow
8:17 AM 12.2 °F -4.3 °F 6.8 °F 79% 29.51 in 0.5 mi SW 16.1 mph 21.9 mph 0.00 in Snow Snow
8:31 AM 12.2 °F -2.5 °F 6.8 °F 79% 29.51 in 1.0 mi WSW 12.7 mph 20.7 mph 0.00 in   Haze
8:56 AM 14.0 °F -2.5 °F 7.0 °F 74% 29.61 in 1.5 mi SW 17.3 mph 21.9 mph 0.00 in   Haze
9:14 AM 14.0 °F -3.0 °F 6.8 °F 73% 29.51 in 2.5 mi SW 18.4 mph 24.2 mph N/A   Haze
9:25 AM 15.8 °F -0.2 °F 6.8 °F 68% 29.51 in 5.0 mi WSW 17.3 mph 25.3 mph N/A   Haze
9:36 AM 15.8 °F 0.3 °F 6.8 °F 68% 29.51 in 7.0 mi SW 16.1 mph 26.5 mph N/A   Overcast
9:56 AM 17.1 °F 0.6 °F 5.0 °F 59% 29.61 in 6.0 mi WSW 19.6 mph 28.8 mph N/A   Haze
10:24 AM 17.6 °F 0.5 °F 3.2 °F 53% 29.52 in 2.5 mi WSW 21.9 mph 39.1 mph N/A   Haze
10:32 AM 17.6 °F 1.3 °F 3.2 °F 53% 29.51 in 5.0 mi WSW 19.6 mph 38.0 mph N/A   Haze
10:47 AM 15.8 °F -2.3 °F 5.0 °F 62% 29.52 in 1.8 mi West 23.0 mph 32.2 mph 0.00 in Snow Light Snow
10:56 AM 16.0 °F -0.9 °F 6.1 °F 65% 29.62 in 0.5 mi West 19.6 mph 34.5 mph 0.00 in Snow Snow
11:06 AM 17.6 °F 1.3 °F 6.8 °F 63% 29.52 in 1.2 mi West 19.6 mph 43.7 mph 0.00 in   Haze
11:24 AM 15.8 °F -1.9 °F 10.4 °F 79% 29.53 in 0.2 mi WSW 21.9 mph 32.2 mph 0.00 in Snow Heavy Snow
11:36 AM 15.8 °F -4.7 °F 8.6 °F 73% 29.53 in 0.5 mi WSW 31.1 mph 43.7 mph 0.00 in Snow Snow
11:39 AM 15.8 °F -1.1 °F 8.6 °F 73% 29.53 in 0.2 mi West 19.6 mph 43.7 mph 0.00 in Snow Heavy Snow
11:50 AM 17.6 °F 1.3 °F 8.6 °F 68% 29.54 in 1.0 mi West 19.6 mph 26.5 mph 0.00 in Snow Light Snow
11:53 AM 17.6 °F 1.3 °F 8.6 °F 68% 29.54 in 2.0 mi West 19.6 mph 28.8 mph 0.00 in Snow Light Snow
11:56 AM 18.0 °F 2.2 °F 6.1 °F 60% 29.63 in 4.0 mi West 18.4 mph 28.8 mph 0.00 in Snow Light Snow
12:03 PM 17.6 °F -0.3 °F 6.8 °F 63% 29.55 in 1.8 mi West 24.2 mph 34.5 mph N/A   Haze
12:06 PM 15.8 °F -3.4 °F 6.8 °F 68% 29.56 in 0.5 mi WNW 26.5 mph 41.4 mph 0.00 in Snow Snow
12:12 PM 14.0 °F -3.0 °F 8.6 °F 79% 29.56 in 0.2 mi WNW 18.4 mph 41.4 mph 0.00 in Snow Heavy Snow
12:19 PM 14.0 °F -2.0 °F 8.6 °F 79% 29.57 in 0.2 mi WNW 16.1 mph 31.1 mph 0.00 in Snow Heavy Snow
12:35 PM 14.0 °F -3.0 °F 8.6 °F 79% 29.58 in 0.2 mi West 18.4 mph 28.8 mph 0.00 in Snow Heavy Snow
12:39 PM 15.8 °F 0.3 °F 6.8 °F 68% 29.58 in 0.5 mi West 16.1 mph 28.8 mph 0.00 in Snow Snow
12:43 PM 15.8 °F -1.9 °F 6.8 °F 68% 29.58 in 2.0 mi West 21.9 mph 27.6 mph 0.00 in Snow Light Snow
12:50 PM 15.8 °F 0.3 °F 8.6 °F 73% 29.59 in 0.8 mi West 16.1 mph 27.6 mph 0.00 in Snow Light Snow
12:51 PM 16.0 °F 0.1 °F 8.1 °F 71% 29.68 in 0.8 mi West 17.3 mph 27.6 mph 0.00 in Snow Light Snow
12:57 PM 15.8 °F 0.9 °F 8.6 °F 73% 29.59 in 0.2 mi WNW 15.0 mph 27.6 mph 0.00 in Snow Heavy Snow
1:13 PM 15.8 °F 1.4 °F 8.6 °F 73% 29.60 in 0.5 mi WNW 13.8 mph 25.3 mph 0.00 in Snow Snow
1:24 PM 14.0 °F -5.1 °F 6.8 °F 73% 29.61 in 0.2 mi WNW 24.2 mph 33.4 mph 0.00 in Snow Heavy Snow
1:39 PM 12.2 °F -5.3 °F 5.0 °F 73% 29.63 in 0.5 mi WNW 18.4 mph 27.6 mph 0.00 in Snow Snow
1:49 PM 12.2 °F -4.3 °F 1.4 °F 62% 29.64 in 1.2 mi WNW 16.1 mph 32.2 mph 0.00 in   Haze
1:56 PM 12.0 °F -6.5 °F 3.0 °F 67% 29.75 in 1.0 mi NW 20.7 mph 29.9 mph 0.00 in Snow Light Snow
1:58 PM 12.2 °F -6.3 °F 3.2 °F 67% 29.65 in 0.8 mi WNW 20.7 mph 29.9 mph 0.00 in Snow Light Snow
2:10 PM 10.4 °F -9.1 °F 1.4 °F 67% 29.66 in 1.0 mi NW 21.9 mph 32.2 mph 0.00 in   Haze
2:31 PM 10.4 °F -7.2 °F -0.4 °F 62% 29.68 in 2.0 mi NW 17.3 mph 29.9 mph 0.00 in   Haze
2:39 PM 10.4 °F -9.1 °F -0.4 °F 62% 29.69 in 2.5 mi WNW 21.9 mph 32.2 mph 0.00 in   Haze
2:56 PM 10.9 °F -8.3 °F -4.0 °F 51% 29.81 in 2.5 mi West 21.9 mph 33.4 mph 0.00 in   Haze
3:05 PM 10.4 °F -7.2 °F -5.8 °F 48% 29.72 in 7.0 mi NW 17.3 mph 27.6 mph N/A   Overcast
3:44 PM 8.6 °F -12.3 °F -5.8 °F 52% 29.77 in 1.8 mi NW 24.2 mph 33.4 mph N/A   Haze
3:56 PM 9.0 °F -10.5 °F -6.0 °F 51% 29.88 in 3.0 mi NW 20.7 mph 29.9 mph N/A   Haze
4:04 PM 8.6 °F -10.0 °F -5.8 °F 52% 29.79 in 2.0 mi WNW 18.4 mph 32.2 mph N/A   Haze
4:14 PM 6.8 °F -15.1 °F -5.8 °F 56% 29.80 in 4.0 mi WNW 25.3 mph 32.2 mph N/A   Haze
4:34 PM 8.6 °F -7.0 °F -7.6 °F 48% 29.81 in 2.5 mi WNW 12.7 mph 35.7 mph N/A   Haze
4:43 PM 8.6 °F -9.5 °F -5.8 °F 52% 29.82 in 10.0 mi NNW 17.3 mph 26.5 mph N/A   Overcast
4:56 PM 7.0 °F -11.0 °F -5.1 °F 58% 29.94 in 7.0 mi WNW 16.1 mph 24.2 mph N/A   Overcast
5:56 PM 6.1 °F -12.8 °F -7.1 °F 55% 29.99 in 10.0 mi WNW 17.3 mph 25.3 mph N/A   Overcast
6:56 PM 3.9 °F -10.4 °F -9.0 °F 55% 30.04 in 10.0 mi NW 9.2 mph - N/A   Partly Cloudy
7:56 PM 3.0 °F -12.5 °F -9.0 °F 57% 30.07 in 10.0 mi WNW 10.4 mph - N/A   Clear
8:56 PM 1.9 °F -11.8 °F -11.0 °F 55% 30.09 in 10.0 mi West 8.1 mph - N/A   Clear
9:56 PM 1.0 °F -11.7 °F -11.0 °F 57% 30.11 in 10.0 mi WNW 6.9 mph - N/A   Clear
10:56 PM -0.0 °F -9.9 °F -11.9 °F 57% 30.13 in 10.0 mi WNW 4.6 mph - N/A   Clear
11:56 PM -0.9 °F -11.0 °F -11.9 °F 60% 30.14 in 10.0 mi WNW 4.6 mph - N/A   Clear